CW9561 Weather Reports


time (UTC)temp
C
wind
direction
speed
KPH
gust
KPH
rain 1hr
cm
rain 24hr
cm
rain mn
cm
humidity
%
barometer
mb
20260902174021 20 182 1.6 0.0 0.00 0.00 0.00 47 1026.9
20260902173023 20 190 1.6 0.0 0.00 0.00 0.00 47 1026.8
20260902172022 20 163 1.6 0.0 0.00 0.00 0.00 48 1026.8
20260902171020 19 206 1.6 0.0 0.00 0.00 0.00 48 1026.7
20260902170022 19 271 1.6 0.0 0.00 0.00 0.00 49 1026.7
20260902164039 18 226 1.6 0.0 0.00 0.00 0.00 51 1027.0
20260902163018 17 119 4.8 0.0 0.00 0.00 0.00 55 1027.3
20260902161019 15 43 1.6 0.0 0.00 0.00 0.00 62 1027.5
20260902160020 15 80 1.6 0.0 0.00 0.00 0.00 61 1027.5
20260902155022 14 66 0.0 0.0 0.00 0.00 0.00 64 1027.5
20260902153019 13 32 0.0 0.0 0.00 0.00 0.00 67 1027.5
20260902152040 13 33 0.0 0.0 0.00 0.00 0.00 67 1027.7
20260902151037 12 29 0.0 0.0 0.00 0.00 0.00 68 1027.8
20260902150019 12 355 0.0 0.0 0.00 0.00 0.00 71 1027.9
20260902145022 12 329 0.0 0.0 0.00 0.00 0.00 70 1028.0
20260902144021 12 321 0.0 0.0 0.00 0.00 0.00 69 1027.3
20260902143020 12 319 0.0 0.0 0.00 0.00 0.00 68 1027.4
20260902142023 12 309 0.0 0.0 0.00 0.00 0.00 65 1027.4
20260902140039 12 309 0.0 0.0 0.00 0.00 0.00 69 1027.8
20260902133040 9 304 0.0 0.0 0.00 0.00 0.00 78 1027.5
20260902132020 8 305 0.0 0.0 0.00 0.00 0.00 79 1027.4
20260902131024 8 305 0.0 0.0 0.00 0.00 0.00 81 1027.4
20260902130021 7 305 0.0 0.0 0.00 0.00 0.00 80 1027.4
20260902125019 7 305 0.0 0.0 0.00 0.00 0.00 79 1027.2
20260902124024 8 305 0.0 0.0 0.00 0.00 0.00 75 1027.3
20260902123022 8 305 0.0 0.0 0.00 0.00 0.00 72 1027.2
20260902122020 9 305 0.0 0.0 0.00 0.00 0.00 72 1027.1
20260902121018 9 305 0.0 0.0 0.00 0.00 0.00 71 1026.9
20260902120021 9 305 0.0 0.0 0.00 0.00 0.00 71 1026.8
20260902114039 8 306 0.0 0.0 0.00 0.00 0.00 73 1026.7
20260902113035 8 306 0.0 0.0 0.00 0.00 0.00 76 1026.6
20260902112035 8 306 0.0 0.0 0.00 0.00 0.00 73 1026.5
20260902111018 8 306 0.0 0.0 0.00 0.00 0.00 75 1026.5
20260902105037 8 306 0.0 0.0 0.00 0.00 0.00 76 1026.7
20260902104038 8 306 0.0 0.0 0.00 0.00 0.00 78 1026.7
20260902103035 7 306 0.0 0.0 0.00 0.00 0.00 79 1026.7
20260902102036 7 306 0.0 0.0 0.00 0.00 0.00 80 1026.5
20260902100029 7 306 0.0 0.0 0.00 0.00 0.00 81 1026.7
20260902094027 7 306 0.0 0.0 0.00 0.00 0.00 80 1026.8
20260902093028 7 306 0.0 0.0 0.00 0.00 0.00 79 1026.8
20260902091027 7 306 0.0 0.0 0.00 0.00 0.00 79 1026.9
20260902085021 8 306 0.0 0.0 0.00 0.00 0.00 79 1027.0
20260902084038 8 306 0.0 0.0 0.00 0.00 0.00 79 1027.1
20260902083020 7 306 0.0 0.0 0.00 0.00 0.00 80 1027.2
20260902082037 7 306 0.0 0.0 0.00 0.00 0.00 79 1027.2
20260902081032 7 306 0.0 0.0 0.00 0.00 0.00 79 1027.2
20260902080033 7 306 3.2 0.0 0.00 0.00 0.00 78 1027.2
20260902074040 8 306 0.0 0.0 0.00 0.00 0.00 75 1027.0
20260902073016 8 306 0.0 0.0 0.00 0.00 0.00 75 1026.9
20260902071035 9 306 0.0 0.0 0.00 0.00 0.00 74 1026.9
20260902064037 9 306 0.0 0.0 0.00 0.00 0.00 75 1026.6
20260902063032 9 306 0.0 0.0 0.00 0.00 0.00 76 1026.3
20260902062028 8 306 0.0 0.0 0.00 0.00 0.00 77 1026.4
20260902061030 8 306 0.0 0.0 0.00 0.00 0.00 77 1026.2
20260902060028 8 306 0.0 0.0 0.00 0.00 0.00 76 1026.2
20260902055025 8 306 0.0 0.0 0.00 0.00 0.03 76 1026.2
20260902053023 8 306 0.0 0.0 0.00 0.00 0.03 77 1026.2
20260902052025 8 306 0.0 0.0 0.00 0.00 0.03 77 1026.9
20260902051022 8 306 0.0 0.0 0.00 0.00 0.03 75 1026.8
20260902050018 9 306 0.0 0.0 0.00 0.00 0.03 72 1026.8
20260902045017 9 306 0.0 0.0 0.00 0.00 0.03 72 1026.8
20260902044017 10 306 0.0 0.0 0.00 0.00 0.03 71 1026.9
20260902043022 10 306 0.0 0.0 0.00 0.00 0.03 70 1027.0
20260902042041 10 306 0.0 0.0 0.00 0.00 0.03 69 1027.0
20260902041037 10 306 0.0 0.0 0.00 0.00 0.03 68 1027.0
20260902035033 11 306 0.0 0.0 0.00 0.00 0.03 68 1027.0
20260902034034 11 306 0.0 0.0 0.00 0.00 0.03 68 1026.8
20260902033031 11 306 0.0 0.0 0.00 0.00 0.03 67 1026.7
20260902032028 12 306 0.0 0.0 0.00 0.00 0.03 66 1026.5
20260902031025 12 306 0.0 0.0 0.00 0.00 0.03 68 1026.6
20260902030028 11 306 0.0 0.0 0.00 0.00 0.03 71 1026.5
20260902024025 12 306 0.0 0.0 0.00 0.00 0.03 72 1026.2
20260902023040 12 306 0.0 0.0 0.00 0.00 0.03 73 1026.2
20260902022038 12 306 0.0 0.0 0.00 0.00 0.03 75 1025.9
20260902021039 12 306 0.0 0.0 0.00 0.00 0.03 75 1025.8
20260902020032 12 306 0.0 0.0 0.00 0.00 0.03 76 1025.7
20260902015030 12 306 0.0 0.0 0.00 0.00 0.03 73 1025.7
20260902014026 13 306 0.0 0.0 0.00 0.00 0.03 70 1025.6
20260902013027 14 306 0.0 0.0 0.00 0.00 0.03 67 1025.5
20260902012043 15 306 0.0 0.0 0.00 0.00 0.03 65 1025.5
20260902011038 16 306 0.0 0.0 0.00 0.00 0.03 62 1025.7
20260902005036 17 306 0.0 0.0 0.00 0.00 0.03 56 1026.0
20260902004037 17 306 0.0 0.0 0.00 0.00 0.03 53 1026.0
20260902003033 17 321 0.0 0.0 0.00 0.00 0.03 48 1026.2
20260902002031 17 54 0.0 0.0 0.00 0.00 0.03 48 1026.0
20260902000034 18 98 0.0 0.0 0.00 0.00 0.03 46 1025.4
20260901235035 18 126 0.0 0.0 0.00 0.00 0.03 45 1025.3
20260901234031 18 166 1.6 0.0 0.00 0.00 0.03 43 1025.5
20260901232030 18 98 1.6 0.0 0.00 0.00 0.03 43 1026.3
20260901231026 17 96 4.8 0.0 0.00 0.00 0.03 58 1026.5
20260901230030 17 109 1.6 0.0 0.00 0.00 0.03 60 1026.3
20260901225025 17 108 3.2 0.0 0.00 0.00 0.03 61 1026.5
20260901224025 17 90 6.4 0.0 0.00 0.00 0.03 61 1026.6
20260901223023 17 88 4.8 0.0 0.00 0.00 0.03 62 1026.4
20260901222026 17 115 6.4 0.0 0.00 0.00 0.03 65 1026.6
20260901221024 16 59 1.6 0.0 0.00 0.00 0.03 68 1026.5
20260901220023 17 317 1.6 0.0 0.00 0.00 0.03 64 1026.9
20260901215038 18 66 1.6 0.0 0.00 0.00 0.03 62 1026.6
20260901213036 18 200 0.0 0.0 0.00 0.00 0.03 55 1026.8
20260901211035 17 280 0.0 0.0 0.00 0.00 0.03 59 1027.0
20260901210031 17 265 3.2 0.0 0.00 0.00 0.03 56 1026.3
20260901205030 20 140 1.6 0.0 0.00 0.00 0.03 48 1026.2
20260901204031 20 145 1.6 0.0 0.00 0.00 0.03 47 1026.4
20260901203029 19 135 0.0 0.0 0.00 0.00 0.03 50 1026.3
20260901201026 18 207 1.6 0.0 0.00 0.00 0.03 51 1026.5
20260901200026 18 241 0.0 0.0 0.00 0.00 0.03 55 1026.5
20260901195024 17 161 0.0 0.0 0.00 0.00 0.03 55 1026.5
20260901194022 17 166 1.6 0.0 0.00 0.00 0.03 54 1026.5
20260901193038 18 156 0.0 0.0 0.00 0.00 0.03 52 1026.5
20260901192033 19 153 1.6 0.0 0.00 0.00 0.03 50 1027.3
20260901191036 19 220 1.6 0.0 0.00 0.00 0.03 50 1027.3
20260901185034 19 261 1.6 0.0 0.00 0.00 0.03 52 1027.4
20260901183036 18 213 1.6 0.0 0.00 0.00 0.03 55 1027.6
20260901182035 18 355 1.6 0.0 0.00 0.00 0.03 55 1027.8
20260901181031 18 152 0.0 0.0 0.00 0.00 0.03 55 1027.7
20260901180029 18 116 1.6 0.0 0.00 0.00 0.03 59 1027.0
20260901175025 18 258 1.6 0.0 0.00 0.00 0.03 61 1026.9